Time,TemperatureF,DewpointF,PressureIn,WindDirection,WindDirectionDegrees,WindSpeedMPH,WindSpeedGustMPH,Humidity,HourlyPrecipIn,Conditions,Clouds,dailyrainin,SoftwareType,DateUTC
2013-03-01 00:22:00,30.0,29.0,29.43,SSW,202,0.0,0.0,95,0.00,,,0.00,,2013-03-01 05:22:00,
2013-03-01 00:33:00,30.0,29.0,29.43,SSW,202,0.0,0.0,95,0.00,,,0.00,,2013-03-01 05:33:00,
2013-03-01 00:42:00,30.0,29.0,29.43,SSW,202,0.0,0.0,95,0.00,,,0.00,,2013-03-01 05:42:00,
2013-03-01 00:53:00,30.0,29.0,29.43,SSW,202,0.0,0.0,95,0.00,,,0.00,,2013-03-01 05:53:00,
2013-03-01 01:02:00,30.0,29.0,29.43,SSW,202,0.0,0.0,95,0.00,,,0.00,,2013-03-01 06:02:00,
2013-03-01 01:12:00,30.0,29.0,29.43,SSW,202,0.0,0.0,95,0.00,,,0.00,,2013-03-01 06:12:00,
2013-03-01 01:22:00,30.0,29.0,29.43,SSW,202,0.0,0.0,95,0.00,,,0.00,,2013-03-01 06:22:00,
2013-03-01 01:32:00,30.0,29.0,29.43,SSW,202,0.0,0.0,95,0.00,,,0.00,,2013-03-01 06:32:00,
2013-03-01 01:42:00,30.0,29.0,29.43,SSW,202,0.0,0.0,95,0.00,,,0.00,,2013-03-01 06:42:00,
2013-03-01 01:52:00,30.0,29.0,29.43,SSW,202,0.0,0.0,95,0.00,,,0.00,,2013-03-01 06:52:00,
2013-03-01 02:02:00,30.0,29.0,29.43,SSW,202,0.0,0.0,95,0.00,,,0.00,,2013-03-01 07:02:00,
2013-03-01 02:11:00,30.0,29.0,29.43,SSW,202,0.0,0.0,95,0.00,,,0.00,,2013-03-01 07:11:00,
2013-03-01 02:22:00,30.0,29.0,29.43,SSW,202,0.0,0.0,95,0.00,,,0.00,,2013-03-01 07:22:00,
2013-03-01 02:32:00,30.0,29.0,29.43,SSW,202,0.0,0.0,95,0.00,,,0.00,,2013-03-01 07:32:00,
2013-03-01 02:42:00,30.0,29.0,29.43,SSW,202,0.0,0.0,95,0.00,,,0.00,,2013-03-01 07:42:00,
2013-03-01 02:52:00,30.0,28.0,29.42,SSW,202,0.0,0.0,94,0.00,,,0.00,,2013-03-01 07:52:00,
2013-03-01 03:02:00,30.0,28.0,29.42,SSW,202,0.0,1.0,94,0.00,,,0.00,,2013-03-01 08:02:00,
2013-03-01 03:12:00,30.0,28.0,29.42,SSW,202,0.0,1.0,94,0.00,,,0.00,,2013-03-01 08:12:00,
2013-03-01 03:22:00,30.0,28.0,29.42,SSW,202,0.0,0.0,94,0.00,,,0.00,,2013-03-01 08:22:00,
2013-03-01 03:32:00,30.0,28.0,29.42,SSW,202,0.0,0.0,94,0.00,,,0.00,,2013-03-01 08:32:00,
2013-03-01 03:42:00,30.0,28.0,29.42,SSW,202,0.0,0.0,94,0.00,,,0.00,,2013-03-01 08:42:00,
2013-03-01 03:52:00,30.0,28.0,29.42,SSW,203,0.0,2.0,94,0.00,,,0.00,,2013-03-01 08:52:00,
2013-03-01 04:02:00,30.0,28.0,29.43,SSW,203,0.0,0.0,94,0.00,,,0.00,,2013-03-01 09:02:00,
2013-03-01 04:12:00,30.0,28.0,29.43,SSW,203,0.0,0.0,94,0.00,,,0.00,,2013-03-01 09:12:00,
2013-03-01 04:22:00,30.0,28.0,29.43,SSW,203,0.0,0.0,94,0.00,,,0.00,,2013-03-01 09:22:00,
2013-03-01 04:32:00,30.0,28.0,29.44,SSW,203,0.0,0.0,94,0.00,,,0.00,,2013-03-01 09:32:00,
2013-03-01 04:42:00,30.0,28.0,29.44,SSW,203,0.0,0.0,94,0.00,,,0.00,,2013-03-01 09:42:00,
2013-03-01 04:52:00,30.0,28.0,29.44,SSW,203,0.0,0.0,94,0.00,,,0.00,,2013-03-01 09:52:00,
2013-03-01 05:02:00,30.0,28.0,29.44,SSW,203,0.0,0.0,94,0.00,,,0.00,,2013-03-01 10:02:00,
2013-03-01 05:12:00,29.0,27.0,29.44,SSW,203,0.0,0.0,94,0.00,,,0.00,,2013-03-01 10:12:00,
2013-03-01 05:22:00,29.0,27.0,29.44,SSW,203,0.0,0.0,94,0.00,,,0.00,,2013-03-01 10:22:00,
2013-03-01 05:32:00,29.0,27.0,29.44,SW,233,0.0,0.0,93,0.00,,,0.00,,2013-03-01 10:32:00,
2013-03-01 05:42:00,29.0,27.0,29.44,SW,233,0.0,0.0,93,0.00,,,0.00,,2013-03-01 10:42:00,
2013-03-01 05:53:00,29.0,27.0,29.44,SW,233,0.0,0.0,93,0.00,,,0.00,,2013-03-01 10:53:00,
2013-03-01 06:01:00,29.0,27.0,29.45,SW,233,0.0,0.0,93,0.00,,,0.00,,2013-03-01 11:01:00,
2013-03-01 06:11:00,29.0,27.0,29.45,SW,233,0.0,0.0,93,0.00,,,0.00,,2013-03-01 11:11:00,
2013-03-01 06:22:00,29.0,27.0,29.45,SW,233,0.0,0.0,93,0.00,,,0.00,,2013-03-01 11:22:00,
2013-03-01 06:32:00,29.0,27.0,29.45,SW,233,0.0,0.0,93,0.00,,,0.00,,2013-03-01 11:32:00,
2013-03-01 06:42:00,29.0,27.0,29.45,SW,233,0.0,0.0,93,0.00,,,0.00,,2013-03-01 11:42:00,
2013-03-01 07:02:00,30.0,29.0,29.47,SW,233,0.0,0.0,95,0.00,,,0.00,,2013-03-01 12:02:00,
2013-03-01 07:11:00,30.0,29.0,29.47,SW,233,0.0,0.0,95,0.00,,,0.00,,2013-03-01 12:11:00,
2013-03-01 07:22:00,30.0,28.0,29.47,SW,233,0.0,0.0,94,0.00,,,0.00,,2013-03-01 12:22:00,
2013-03-01 07:32:00,30.0,28.0,29.47,SW,233,0.0,0.0,94,0.00,,,0.00,,2013-03-01 12:32:00,
2013-03-01 07:42:00,30.0,28.0,29.47,SW,233,0.0,0.0,94,0.00,,,0.00,,2013-03-01 12:42:00,
2013-03-01 07:52:00,30.0,28.0,29.48,SW,233,0.0,0.0,94,0.00,,,0.00,,2013-03-01 12:52:00,
2013-03-01 08:01:00,30.0,28.0,29.48,SW,233,0.0,0.0,94,0.00,,,0.00,,2013-03-01 13:01:00,
2013-03-01 08:11:00,31.0,29.0,29.49,East,99,0.0,0.0,91,0.00,,,0.00,,2013-03-01 13:11:00,
2013-03-01 08:22:00,31.0,29.0,29.49,East,99,0.0,0.0,91,0.00,,,0.00,,2013-03-01 13:22:00,
2013-03-01 08:32:00,31.0,29.0,29.49,East,99,0.0,0.0,91,0.00,,,0.00,,2013-03-01 13:32:00,
2013-03-01 08:42:00,31.0,29.0,29.49,East,99,0.0,0.0,91,0.00,,,0.00,,2013-03-01 13:42:00,
2013-03-01 09:02:00,32.0,29.0,29.49,South,176,0.0,0.0,88,0.00,,,0.00,,2013-03-01 14:02:00,
2013-03-01 09:12:00,32.0,29.0,29.49,South,176,0.0,0.0,88,0.00,,,0.00,,2013-03-01 14:12:00,
2013-03-01 09:21:00,32.0,29.0,29.50,WSW,246,0.0,0.0,88,0.00,,,0.00,,2013-03-01 14:21:00,
2013-03-01 09:22:00,32.0,29.0,29.49,South,176,0.0,0.0,88,0.00,,,0.00,,2013-03-01 14:22:00,
2013-03-01 09:32:00,32.0,29.0,29.49,South,176,0.0,0.0,88,0.00,,,0.00,,2013-03-01 14:32:00,
2013-03-01 09:42:00,32.0,29.0,29.49,South,176,0.0,0.0,88,0.00,,,0.00,,2013-03-01 14:42:00,
2013-03-01 09:52:00,32.0,29.0,29.50,WSW,246,0.0,0.0,88,0.00,,,0.00,,2013-03-01 14:52:00,
2013-03-01 10:02:00,32.0,29.0,29.50,WSW,246,0.0,0.0,88,0.00,,,0.00,,2013-03-01 15:02:00,
2013-03-01 10:11:00,32.0,29.0,29.50,WSW,246,0.0,0.0,88,0.00,,,0.00,,2013-03-01 15:11:00,
2013-03-01 10:32:00,32.0,29.0,29.50,NNW,328,0.0,1.0,87,0.00,,,0.00,,2013-03-01 15:32:00,
2013-03-01 10:42:00,32.0,29.0,29.50,NNW,328,0.0,1.0,87,0.00,,,0.00,,2013-03-01 15:42:00,
2013-03-01 10:52:00,32.0,29.0,29.50,NNW,328,0.0,1.0,87,0.00,,,0.00,,2013-03-01 15:52:00,
2013-03-01 11:01:00,32.0,29.0,29.50,NNW,328,0.0,1.0,87,0.00,,,0.00,,2013-03-01 16:01:00,
2013-03-01 13:02:00,33.0,29.0,29.51,SW,229,0.0,0.0,84,0.00,,,0.00,,2013-03-01 18:02:00,
2013-03-01 13:12:00,33.0,29.0,29.51,SW,229,0.0,0.0,84,0.00,,,0.00,,2013-03-01 18:12:00,
2013-03-01 13:22:00,33.0,29.0,29.51,SW,229,0.0,0.0,84,0.00,,,0.00,,2013-03-01 18:22:00,
2013-03-01 13:32:00,34.0,28.0,29.51,East,88,2.0,3.0,80,0.00,,,0.00,,2013-03-01 18:32:00,
2013-03-01 13:42:00,34.0,28.0,29.51,East,88,2.0,3.0,80,0.00,,,0.00,,2013-03-01 18:42:00,
2013-03-01 13:52:00,34.0,28.0,29.51,East,88,2.0,3.0,80,0.00,,,0.00,,2013-03-01 18:52:00,
2013-03-01 14:01:00,34.0,28.0,29.51,SSE,150,0.0,0.0,78,0.00,,,0.00,,2013-03-01 19:01:00,
2013-03-01 14:11:00,34.0,28.0,29.51,SSE,150,0.0,0.0,78,0.00,,,0.00,,2013-03-01 19:11:00,
2013-03-01 14:21:00,34.0,28.0,29.51,SSE,150,0.0,0.0,78,0.00,,,0.00,,2013-03-01 19:21:00,
2013-03-01 14:32:00,34.0,28.0,29.51,SSE,150,0.0,0.0,78,0.00,,,0.00,,2013-03-01 19:32:00,
2013-03-01 14:52:00,35.0,30.0,29.50,SSE,161,0.0,0.0,81,0.04,,,0.04,,2013-03-01 19:52:00,
2013-03-01 15:01:00,35.0,28.0,29.50,SW,220,0.0,2.0,76,0.06,,,0.07,,2013-03-01 20:01:00,
2013-03-01 15:11:00,35.0,28.0,29.50,SW,220,0.0,2.0,76,0.06,,,0.07,,2013-03-01 20:11:00,
2013-03-01 15:21:00,35.0,28.0,29.50,SW,216,2.0,3.0,74,0.07,,,0.08,,2013-03-01 20:21:00,
2013-03-01 15:32:00,35.0,28.0,29.50,SW,216,2.0,3.0,74,0.07,,,0.08,,2013-03-01 20:32:00,
2013-03-01 15:42:00,35.0,28.0,29.50,SW,216,2.0,3.0,74,0.07,,,0.08,,2013-03-01 20:42:00,
2013-03-01 15:52:00,36.0,29.0,29.50,WSW,258,2.0,3.0,74,0.08,,,0.11,,2013-03-01 20:52:00,
2013-03-01 16:02:00,36.0,29.0,29.50,WSW,258,2.0,3.0,74,0.08,,,0.11,,2013-03-01 21:02:00,
2013-03-01 16:11:00,36.0,27.0,29.50,SW,234,0.0,5.0,69,0.04,,,0.12,,2013-03-01 21:11:00,
2013-03-01 16:21:00,36.0,27.0,29.50,SW,234,0.0,5.0,69,0.04,,,0.12,,2013-03-01 21:21:00,
2013-03-01 16:32:00,35.0,27.0,29.51,SW,227,0.0,0.0,73,0.03,,,0.13,,2013-03-01 21:32:00,
2013-03-01 16:42:00,35.0,27.0,29.51,SW,227,0.0,0.0,73,0.03,,,0.13,,2013-03-01 21:42:00,
2013-03-01 16:52:00,35.0,27.0,29.51,SW,227,0.0,0.0,73,0.03,,,0.13,,2013-03-01 21:52:00,
2013-03-01 17:01:00,35.0,27.0,29.51,SW,227,0.0,0.0,73,0.03,,,0.13,,2013-03-01 22:01:00,
2013-03-01 17:11:00,34.0,27.0,29.52,West,281,0.0,7.0,76,0.02,,,0.14,,2013-03-01 22:11:00,
2013-03-01 17:22:00,34.0,27.0,29.52,West,281,0.0,7.0,76,0.02,,,0.14,,2013-03-01 22:22:00,
2013-03-01 17:32:00,34.0,27.0,29.52,West,281,0.0,7.0,76,0.02,,,0.14,,2013-03-01 22:32:00,
2013-03-01 17:42:00,34.0,27.0,29.52,West,281,0.0,7.0,76,0.02,,,0.14,,2013-03-01 22:42:00,
2013-03-01 17:51:00,34.0,28.0,29.52,WNW,284,0.0,0.0,78,0.01,,,0.14,,2013-03-01 22:51:00,
2013-03-01 18:01:00,33.0,29.0,29.52,WNW,287,0.0,0.0,84,0.01,,,0.14,,2013-03-01 23:01:00,
2013-03-01 18:11:00,33.0,29.0,29.52,WNW,287,0.0,0.0,84,0.01,,,0.14,,2013-03-01 23:11:00,
2013-03-01 18:21:00,33.0,29.0,29.52,WNW,287,0.0,0.0,84,0.01,,,0.14,,2013-03-01 23:21:00,
2013-03-01 18:32:00,33.0,29.0,29.52,WNW,287,0.0,0.0,84,0.01,,,0.14,,2013-03-01 23:32:00,
2013-03-01 18:41:00,33.0,29.0,29.52,WNW,287,0.0,0.0,84,0.01,,,0.14,,2013-03-01 23:41:00,
2013-03-01 18:52:00,32.0,29.0,29.53,SSW,200,0.0,0.0,88,0.00,,,0.14,,2013-03-01 23:52:00,
2013-03-01 19:02:00,32.0,28.0,29.53,SSW,202,0.0,2.0,84,0.00,,,0.14,,2013-03-02 00:02:00,
2013-03-01 19:12:00,32.0,28.0,29.53,SSW,202,0.0,2.0,84,0.00,,,0.14,,2013-03-02 00:12:00,
2013-03-01 19:22:00,32.0,29.0,29.53,NE,54,0.0,0.0,88,0.00,,,0.14,,2013-03-02 00:22:00,
2013-03-01 19:32:00,32.0,29.0,29.53,NE,54,0.0,0.0,90,0.00,,,0.14,,2013-03-02 00:32:00,
2013-03-01 19:42:00,32.0,29.0,29.54,North,1,0.0,0.0,89,0.00,,,0.14,,2013-03-02 00:42:00,
2013-03-01 19:52:00,32.0,29.0,29.54,North,1,0.0,0.0,89,0.00,,,0.14,,2013-03-02 00:52:00,
2013-03-01 20:01:00,32.0,29.0,29.54,North,1,0.0,0.0,89,0.00,,,0.14,,2013-03-02 01:01:00,
2013-03-01 20:11:00,32.0,29.0,29.54,WNW,287,0.0,1.0,87,0.00,,,0.14,,2013-03-02 01:11:00,
2013-03-01 20:21:00,32.0,29.0,29.54,WNW,287,0.0,1.0,87,0.00,,,0.14,,2013-03-02 01:21:00,
2013-03-01 20:32:00,32.0,28.0,29.54,West,270,0.0,1.0,84,0.00,,,0.14,,2013-03-02 01:32:00,
2013-03-01 20:42:00,32.0,28.0,29.54,West,270,0.0,1.0,84,0.00,,,0.14,,2013-03-02 01:42:00,
2013-03-01 20:51:00,32.0,28.0,29.54,West,270,0.0,5.0,85,0.00,,,0.14,,2013-03-02 01:51:00,
2013-03-01 21:01:00,32.0,28.0,29.54,NW,315,0.0,0.0,85,0.00,,,0.14,,2013-03-02 02:01:00,
2013-03-01 21:11:00,32.0,28.0,29.54,NW,315,0.0,0.0,85,0.00,,,0.14,,2013-03-02 02:11:00,
2013-03-01 21:22:00,32.0,28.0,29.54,NW,315,0.0,0.0,85,0.00,,,0.14,,2013-03-02 02:22:00,
2013-03-01 21:32:00,31.0,28.0,29.54,SW,233,0.0,0.0,89,0.00,,,0.14,,2013-03-02 02:32:00,
2013-03-01 21:42:00,31.0,28.0,29.54,SW,233,0.0,0.0,89,0.00,,,0.14,,2013-03-02 02:42:00,
2013-03-01 21:52:00,31.0,28.0,29.54,SW,233,0.0,0.0,90,0.00,,,0.14,,2013-03-02 02:52:00,
2013-03-01 22:02:00,31.0,28.0,29.54,SW,233,0.0,0.0,90,0.00,,,0.14,,2013-03-02 03:02:00,
2013-03-01 22:11:00,31.0,28.0,29.53,West,263,0.0,0.0,89,0.00,,,0.14,,2013-03-02 03:11:00,
2013-03-01 22:21:00,31.0,28.0,29.53,West,263,0.0,0.0,89,0.00,,,0.14,,2013-03-02 03:21:00,
2013-03-01 22:32:00,31.0,28.0,29.53,West,263,0.0,0.0,87,0.00,,,0.14,,2013-03-02 03:32:00,
2013-03-01 22:42:00,31.0,28.0,29.53,West,263,0.0,0.0,87,0.00,,,0.14,,2013-03-02 03:42:00,
2013-03-01 22:52:00,31.0,28.0,29.53,West,263,0.0,0.0,87,0.00,,,0.14,,2013-03-02 03:52:00,
2013-03-01 23:01:00,30.0,27.0,29.53,West,263,0.0,0.0,90,0.00,,,0.14,,2013-03-02 04:01:00,
2013-03-01 23:11:00,30.0,27.0,29.53,West,263,0.0,0.0,90,0.00,,,0.14,,2013-03-02 04:11:00,
2013-03-01 23:22:00,30.0,27.0,29.53,West,263,0.0,0.0,90,0.00,,,0.14,,2013-03-02 04:22:00,
2013-03-01 23:32:00,30.0,27.0,29.53,West,263,0.0,0.0,90,0.00,,,0.14,,2013-03-02 04:32:00,
2013-03-01 23:42:00,30.0,27.0,29.53,West,263,0.0,0.0,90,0.00,,,0.14,,2013-03-02 04:42:00,
2013-03-01 23:52:00,30.0,27.0,29.52,West,263,0.0,0.0,90,0.00,,,0.14,,2013-03-02 04:52:00,